Location: Althorst
(53.6379°N, 10.7715°E)
Time: 11:49:25
(UTC+00:00)

Cosmos 2237 Rocket - Pass Details

Date: 10 December 2019
Orbit: 836 x 849 km, 71.0° (Epoch: 25 January)

Event Time Altitude Azimuth Distance (km) Brightness Sun altitude
Rises 15:49:37 0° 168° (SSE) 3,401 5.6 -7.3°
Reaches altitude 10° 15:52:29 10° 155° (SSE) 2,470 4.7 -7.7°
Maximum altitude 15:56:55 24° 103° (ESE) 1,686 3.4 -8.2°
Enters shadow 16:01:18 10° 52° (NE) 2,462 4.0 -8.8°
